Sauk Centre, MN

7:16 AM CST on December 14, 2019 (GMT -0600)
Sauk Centre

Weather History for KD39 - October, 2019

Change the Weather History Date:

Thursday, October 24, 2019

  Actual Average (WUND) Record (WUND)
Temperature  
Mean Temperature 34 °F -  
Max Temperature 42 °F - - (-1)
Min Temperature 26 °F - - (-1)
Degree Days  
Heating Degree Days 32    
Moisture  
Dew Point 24 °F    
Average Humidity 76    
Maximum Humidity 92    
Minimum Humidity 44    
Precipitation  
Precipitation 0.00 in - - ()
Sea Level Pressure  
Sea Level Pressure 30.28 in    
Wind  
Wind Speed 5 mph ()    
Max Wind Speed 14 mph    
Max Gust Speed 21 mph    
Visibility 10.0 miles    
Events      
Averages and records for this station are not official NWS values.
T = Trace of Precipitation, MM = Missing Value Source: Averaged Metar Reports

Daily Weather History Graph

Daily Weather History Graph

Search for Another Location

Airport or City:

Astronomy

Oct. 24, 2019 Rise Set
Actual Time 7:48 AM CDT 6:18 PM CDT
Civil Twilight 7:17 AM CDT 6:49 PM CDT
Nautical Twilight 6:43 AM CDT 7:24 PM CDT
Astronomical Twilight 6:08 AM CDT 7:58 PM CDT
Moon 3:00 AM CDT (10/24) 5:03 PM CDT (10/24)
Length of Visible Light 11h 31m
Length of Day
10h 30m
Waning Crescent, 16% of the Moon is Illuminated
Oct 24
Waning Crescent
Oct 27
New
Nov 4
First Quarter
Nov 12
Full
Nov 19
Last Quarter

Hourly Weather History & Observations

Time (CDT) Temp. Windchill Dew Point Humidity Pressure Visibility Wind Dir Wind Speed Gust Speed Precip Events Conditions
12:15 AM 32.2 °F 25.8 °F 25.2 °F 75% 30.18 in 10.0 mi WNW 6.9 mph - N/A   Clear
12:19 AM 32.0 °F 25.6 °F 25.3 °F 76% 30.18 in 10.0 mi WNW 6.9 mph - N/A   Clear
12:38 AM 31.3 °F 25.6 °F 25.2 °F 78% 30.18 in 10.0 mi West 5.8 mph - N/A   Clear
12:55 AM 30.0 °F 25.2 °F 25.7 °F 84% 30.18 in 10.0 mi West 4.6 mph - N/A   Clear
1:15 AM 29.1 °F 23.0 °F 25.3 °F 86% 30.18 in 10.0 mi West 5.8 mph - N/A   Clear
1:16 AM 29.1 °F 23.0 °F 25.3 °F 86% 30.18 in 10.0 mi West 5.8 mph - N/A   Clear
1:35 AM 28.4 °F 24.6 °F 25.3 °F 88% 30.19 in 10.0 mi West 3.5 mph - N/A   Clear
1:36 AM 28.4 °F 24.6 °F 25.3 °F 88% 30.19 in 10.0 mi West 3.5 mph - N/A   Clear
1:58 AM 27.5 °F 23.6 °F 25.2 °F 91% 30.20 in 10.0 mi West 3.5 mph - N/A   Clear
2:17 AM 28.0 °F 22.8 °F 25.2 °F 89% 30.20 in 10.0 mi West 4.6 mph - N/A   Clear
2:36 AM 27.3 °F 20.9 °F 24.8 °F 90% 30.20 in 10.0 mi West 5.8 mph - N/A   Clear
2:55 AM 28.0 °F 21.7 °F 24.8 °F 88% 30.20 in 10.0 mi West 5.8 mph - N/A   Clear
3:15 AM 27.5 °F 21.1 °F 24.8 °F 90% 30.21 in 10.0 mi West 5.8 mph - N/A   Clear
3:20 AM 27.3 °F 22.0 °F 24.6 °F 90% 30.21 in 10.0 mi West 4.6 mph - N/A   Clear
3:38 AM 26.8 °F 19.3 °F 24.6 °F 92% 30.22 in 10.0 mi West 6.9 mph - N/A   Clear
3:55 AM 27.3 °F 19.9 °F 24.8 °F 90% 30.23 in 10.0 mi West 6.9 mph - N/A   Clear
4:15 AM 27.5 °F 18.6 °F 25.0 °F 90% 30.24 in 10.0 mi West 9.2 mph - N/A   Clear
4:16 AM 27.5 °F 19.3 °F 25.2 °F 91% 30.24 in 10.0 mi West 8.1 mph - N/A   Clear
4:35 AM 27.1 °F 19.7 °F 24.8 °F 91% 30.24 in 10.0 mi West 6.9 mph - N/A   Clear
4:58 AM 26.8 °F 21.4 °F 24.6 °F 92% 30.24 in 10.0 mi West 4.6 mph - N/A   Clear
5:17 AM 26.4 °F 18.9 °F 24.4 °F 92% 30.25 in 10.0 mi West 6.9 mph - N/A   Clear
5:36 AM 26.4 °F 19.8 °F 24.4 °F 92% 30.25 in 7.0 mi West 5.8 mph - N/A   Clear
5:55 AM 27.1 °F 18.9 °F 24.8 °F 91% 30.26 in 10.0 mi West 8.1 mph - N/A   Mostly Cloudy
5:56 AM 27.1 °F 18.9 °F 24.8 °F 91% 30.26 in 10.0 mi West 8.1 mph - N/A   Scattered Clouds
6:15 AM 27.5 °F 21.1 °F 25.2 °F 91% 30.27 in 10.0 mi West 5.8 mph - N/A   Scattered Clouds
6:19 AM 27.7 °F 22.4 °F 25.2 °F 90% 30.27 in 10.0 mi West 4.6 mph - N/A   Scattered Clouds
6:37 AM 27.5 °F 23.6 °F 24.8 °F 90% 30.27 in 10.0 mi WNW 3.5 mph - N/A   Scattered Clouds
6:55 AM 26.6 °F 22.6 °F 24.6 °F 92% 30.27 in 10.0 mi WNW 3.5 mph - N/A   Clear
7:15 AM 27.0 °F 21.6 °F 24.8 °F 92% 30.28 in 10.0 mi West 4.6 mph - N/A   Clear
7:16 AM 27.0 °F 21.6 °F 24.8 °F 92% 30.28 in 10.0 mi West 4.6 mph - N/A   Clear
7:35 AM 27.0 °F 20.5 °F 24.8 °F 92% 30.28 in 10.0 mi WNW 5.8 mph - N/A   Clear
7:36 AM 27.1 °F 20.7 °F 25.0 °F 92% 30.28 in 10.0 mi WNW 5.8 mph - N/A   Clear
7:58 AM 26.6 °F 21.2 °F 24.6 °F 92% 30.29 in 10.0 mi WNW 4.6 mph - N/A   Clear
8:17 AM 27.1 °F - 25.0 °F 92% 30.30 in 10.0 mi Calm Calm - N/A   Clear
8:35 AM 28.2 °F 22.0 °F 25.3 °F 89% 30.30 in 10.0 mi WNW 5.8 mph - N/A   Clear
8:55 AM 29.3 °F 23.2 °F 25.7 °F 86% 30.31 in 10.0 mi WNW 5.8 mph - N/A   Clear
8:56 AM 29.5 °F 23.4 °F 25.5 °F 85% 30.31 in 10.0 mi WNW 5.8 mph - N/A   Clear
9:18 AM 31.1 °F 25.4 °F 25.9 °F 81% 30.31 in 10.0 mi WNW 5.8 mph - N/A   Clear
9:37 AM 32.0 °F 24.2 °F 25.7 °F 78% 30.32 in 10.0 mi WNW 9.2 mph - N/A   Clear
9:56 AM 32.9 °F 25.3 °F 26.2 °F 76% 30.33 in 10.0 mi WNW 9.2 mph - N/A   Clear
10:16 AM 34.0 °F 27.2 °F 24.8 °F 69% 30.34 in 10.0 mi WNW 8.1 mph - N/A   Clear
10:35 AM 34.9 °F 25.7 °F 25.0 °F 67% 30.34 in 10.0 mi NW 13.8 mph - N/A   Clear
10:39 AM 34.9 °F 26.6 °F 24.6 °F 66% 30.34 in 10.0 mi NW 11.5 mph - N/A   Clear
10:57 AM 35.2 °F 27.1 °F 24.3 °F 64% 30.34 in 10.0 mi NW 11.5 mph - N/A   Scattered Clouds
11:16 AM 36.5 °F 27.8 °F 24.1 °F 61% 30.34 in 10.0 mi NW 13.8 mph - N/A   Scattered Clouds
11:35 AM 36.1 °F 27.3 °F 23.0 °F 59% 30.34 in 10.0 mi NW 13.8 mph - N/A   Clear
11:36 AM 36.3 °F 27.5 °F 23.2 °F 59% 30.34 in 10.0 mi NW 13.8 mph - N/A   Clear
11:55 AM 37.0 °F 29.8 °F 22.6 °F 56% 30.33 in 10.0 mi NW 10.4 mph 20.7 mph N/A   Clear
12:18 PM 37.8 °F 32.5 °F 23.0 °F 55% 30.33 in 10.0 mi WNW 6.9 mph - N/A   Clear
1:16 PM 39.2 °F 35.0 °F 22.6 °F 52% 30.32 in 10.0 mi WNW 5.8 mph - N/A   Clear
1:35 PM 39.6 °F 34.7 °F 22.8 °F 51% 30.33 in 10.0 mi NW 6.9 mph - N/A   Clear
1:39 PM 40.1 °F 36.1 °F 23.5 °F 52% 30.32 in 10.0 mi WNW 5.8 mph - N/A   Clear
1:57 PM 40.6 °F 34.8 °F 22.6 °F 49% 30.32 in 10.0 mi WNW 9.2 mph - N/A   Clear
2:15 PM 40.5 °F 36.5 °F 23.0 °F 50% 30.32 in 10.0 mi WNW 5.8 mph - N/A   Clear
2:36 PM 41.0 °F 35.8 °F 23.0 °F 49% 30.32 in 10.0 mi NW 8.1 mph - N/A   Clear
2:55 PM 41.4 °F 39.4 °F 22.5 °F 47% 30.31 in 10.0 mi WNW 3.5 mph 10.4 mph N/A   Clear
3:18 PM 41.9 °F 38.2 °F 23.5 °F 48% 30.31 in 10.0 mi WNW 5.8 mph - N/A   Clear
3:37 PM 41.9 °F 39.0 °F 24.3 °F 50% 30.31 in 10.0 mi WSW 4.6 mph - N/A   Clear
3:56 PM 41.9 °F 37.5 °F 23.0 °F 47% 30.30 in 10.0 mi WNW 6.9 mph - N/A   Clear
4:15 PM 41.4 °F 36.8 °F 21.0 °F 44% 30.30 in 10.0 mi West 6.9 mph - N/A   Clear
4:16 PM 41.4 °F 36.8 °F 21.6 °F 45% 30.30 in 10.0 mi West 6.9 mph - N/A   Clear
4:35 PM 41.5 °F 37.8 °F 23.0 °F 48% 30.30 in 10.0 mi WSW 5.8 mph - N/A   Clear
4:57 PM 41.2 °F 36.0 °F 23.5 °F 50% 30.30 in 10.0 mi West 8.1 mph - N/A   Clear
5:16 PM 40.6 °F 35.4 °F 23.4 °F 50% 30.30 in 10.0 mi West 8.1 mph - N/A   Clear
5:35 PM 39.6 °F 36.3 °F 23.7 °F 53% 30.30 in 10.0 mi West 4.6 mph - N/A   Clear
5:36 PM 39.6 °F 35.4 °F 23.9 °F 54% 30.30 in 10.0 mi WSW 5.8 mph - N/A   Clear
5:55 PM 38.5 °F 35.0 °F 23.9 °F 56% 30.30 in 10.0 mi WSW 4.6 mph - N/A   Clear
6:18 PM 36.5 °F 32.7 °F 23.9 °F 60% 30.30 in 10.0 mi WSW 4.6 mph - N/A   Clear
6:36 PM 35.8 °F - 24.1 °F 62% 30.30 in 10.0 mi Calm Calm - N/A   Clear
6:56 PM 35.1 °F 32.2 °F 23.9 °F 64% 30.29 in 10.0 mi SW 3.5 mph - N/A   Clear
7:15 PM 33.3 °F - 25.0 °F 72% 30.30 in 10.0 mi Calm Calm - N/A   Clear
7:16 PM 33.1 °F - 24.8 °F 72% 30.30 in 10.0 mi Calm Calm - N/A   Clear
7:35 PM 31.8 °F - 25.3 °F 77% 30.30 in 10.0 mi Calm Calm - N/A   Clear
7:39 PM 31.6 °F - 25.2 °F 77% 30.30 in 10.0 mi Calm Calm - N/A   Clear
7:57 PM 30.7 °F - 24.6 °F 78% 30.30 in 10.0 mi Calm Calm - N/A   Clear
8:16 PM 31.1 °F - 24.4 °F 76% 30.30 in 10.0 mi Calm Calm - N/A   Clear
8:35 PM 30.0 °F - 24.4 °F 80% 30.31 in 10.0 mi Calm Calm - N/A   Clear
8:36 PM 30.0 °F - 24.4 °F 80% 30.31 in 10.0 mi Calm Calm - N/A   Clear
8:55 PM 29.8 °F 26.3 °F 24.8 °F 81% 30.31 in 10.0 mi SSE 3.5 mph - N/A   Clear
8:56 PM 29.8 °F 26.3 °F 24.8 °F 81% 30.31 in 10.0 mi SSE 3.5 mph - N/A   Clear
9:18 PM 27.9 °F - 25.2 °F 90% 30.31 in 10.0 mi Calm Calm - N/A   Clear
9:36 PM 27.9 °F - 25.0 °F 89% 30.31 in 10.0 mi Calm Calm - N/A   Clear
9:55 PM 27.5 °F - 24.8 °F 90% 30.31 in 10.0 mi Calm Calm - N/A   Clear
10:15 PM 28.4 °F - 24.8 °F 86% 30.32 in 10.0 mi Calm Calm - N/A   Clear
10:16 PM 28.4 °F - 24.8 °F 86% 30.32 in 10.0 mi Calm Calm - N/A   Clear
10:35 PM 27.3 °F - 24.1 °F 88% 30.31 in 10.0 mi Calm Calm - N/A   Clear
10:39 PM 27.5 °F - 24.1 °F 87% 30.31 in 10.0 mi Calm Calm - N/A   Clear
10:58 PM 26.6 °F 21.2 °F 23.9 °F 90% 30.31 in 10.0 mi SSE 4.6 mph - N/A   Clear
11:16 PM 26.4 °F 20.9 °F 23.4 °F 88% 30.31 in 10.0 mi SSE 4.6 mph - N/A   Clear
11:35 PM 27.3 °F 23.4 °F 23.5 °F 86% 30.31 in 10.0 mi SSE 3.5 mph - N/A   Clear
11:36 PM 27.5 °F 23.6 °F 23.5 °F 85% 30.31 in 10.0 mi SSE 3.5 mph - N/A   Clear
11:55 PM 27.5 °F 22.2 °F 23.4 °F 84% 30.30 in 10.0 mi SSE 4.6 mph - N/A   Clear
11:56 PM 27.3 °F 22.0 °F 23.2 °F 84% 30.30 in 10.0 mi SSE 4.6 mph - N/A   Clear